This demonstration page uses our WeatherBlox Daily Observations layout. Learn more.

39.08367, -84.50855

Hourly Observations for August 18, 2019

Temp ( °F °C ) Dew Point ( °F °C ) Humidity (%) Winds ( mph kmh ) Pressure ( in mb ) Visibility ( mi km ) Precip ( " mm )
12:53 am 00:53 Clear with Mist and Fog 72 22.2 71 21.7 97 97 Calm 29.94 1014 6 9.656064 0 0
1:35 am 01:35 Clear with Mist and Fog 71 21.7 71 21.7 100 100 Calm 29.94 1014 2 3.218688 0 0
1:45 am 01:45 Clear with Mist and Fog 71 21.7 71 21.7 100 100 Calm 29.94 1014 4 6.437376 0 0
1:53 am 01:53 Clear 72 22.2 71 21.7 97 97 Calm 29.91 1013 8 12.874752 0 0
2:02 am 02:02 Clear with Mist and Fog 71 21.7 71 21.7 100 100 Calm 29.91 1013 1.75 2.816352 0 0
2:08 am 02:08 Clear with Mist and Fog 71 21.7 71 21.7 100 100 Calm 29.91 1013 3 4.828032 0 0
2:53 am 02:53 Clear with Mist and Fog 71 21.7 71 21.7 100 100 Calm 29.91 1013 4 6.437376 0 0
3:53 am 03:53 Clear with Mist and Fog 71 21.7 70 21.1 96 96 Calm 29.91 1013 4 6.437376 0 0
4:53 am 04:53 Clear with Mist and Fog 72 22.2 71 21.7 97 97 Calm 29.91 1013 5 8.04672 0 0
5:14 am 05:14 Clear with Mist and Fog 70 21.1 70 21.1 100 100 Calm 29.91 1013 1.25 2.01168 0 0
5:31 am 05:31 Clear with Mist and Fog 71 21.7 70 21.1 96 96 Calm 29.91 1013 5 8.04672 0 0
5:53 am 05:53 Clear with Mist and Fog 70 21.1 70 21.1 100 100 Calm 29.91 1013 5 8.04672 0 0
6:25 am 06:25 Clear with Mist and Fog 70 21.1 70 21.1 100 100 Calm 29.91 1013 1.75 2.816352 0 0
6:40 am 06:40 Mostly Clear with Patchy Fog 70 21.1 69 20.6 97 97 Calm 29.94 1014 4 6.437376 0 0
6:53 am 06:53 Mostly Clear with Patchy Fog 71 21.7 70 21.1 96 96 Calm 29.91 1013 4 6.437376 0 0
6:55 am 06:55 Sunny with Patchy Fog 71 21.7 70 21.1 96 96 Calm 29.91 1013 0.75 1.207008 0 0
7:04 am 07:04 Mostly Cloudy with Patchy Fog 69 20.6 69 20.6 100 100 ENE 3 6 29.91 1013 0.5 0.804672 0 0
7:17 am 07:17 Partly Cloudy with Patchy Fog 69 20.6 69 20.6 100 100 Calm 29.94 1014 4 6.437376 0 0
7:53 am 07:53 Sunny with Patchy Fog 71 21.7 71 21.7 100 100 Calm 29.94 1014 6 9.656064 0 0
8:53 am 08:53 Sunny 76 24.4 72 22.2 88 88 SW 5 7 29.97 1015 10 16.09344 0 0
9:53 am 09:53 Sunny 81 27.2 72 22.2 74 74 S 5 7 29.94 1014 10 16.09344 0 0
10:53 am 10:53 Sunny 84 28.9 74 23.3 72 72 S 6 9 29.97 1015 10 16.09344 0 0
11:53 am 11:53 Sunny 87 30.6 74 23.3 65 65 VRB 5 7 29.97 1015 10 16.09344 0 0
12:53 pm 12:53 Mostly Sunny 89 31.7 70 21.1 53 53 SW 9 15 29.94 1014 10 16.09344 0 0
1:53 pm 13:53 Mostly Sunny 89 31.7 71 21.7 55 55 SSW 9 15 29.94 1014 10 16.09344 0 0
2:53 pm 14:53 Mostly Cloudy 91 32.8 70 21.1 50 50 SSW 12 19 29.94 1014 10 16.09344 0 0
3:53 pm 15:53 Mostly Sunny 91 32.8 68 20 47 47 SSW 5 7 29.91 1013 10 16.09344 0 0
4:53 pm 16:53 Sunny 92 33.3 66 18.9 43 43 SW 9 15 29.88 1012 10 16.09344 0 0
5:53 pm 17:53 Mostly Sunny 90 32.2 68 20 48 48 S 9 15 29.88 1012 10 16.09344 0 0
6:53 pm 18:53 Mostly Sunny 88 31.1 69 20.6 54 54 S 9 15 29.85 1011 10 16.09344 0 0
7:53 pm 19:53 Mostly Sunny 82 27.8 70 21.1 67 67 S 5 7 29.85 1011 10 16.09344 0 0
8:53 pm 20:53 Mostly Clear 79 26.1 71 21.7 77 77 Calm 29.85 1011 10 16.09344 0 0
9:53 pm 21:53 Partly Cloudy 78 25.6 71 21.7 79 79 SSW 7 11 29.91 1013 10 16.09344 0 0
10:53 pm 22:53 Mostly Clear 84 28.9 66 18.9 55 55 NW 18 30 29.91 1013 10 16.09344 0 0
11:53 pm 23:53 Clear 78 25.6 65 18.3 64 64 NW 5 7 29.94 1014 10 16.09344 0 0

Powered by AerisWeather